LAGEOS 1 
1 08820U 76039A   03021.85648958  .00000005  00000-0  10000-3 0  9137
2 08820 109.8342 131.4939 0044306 332.6608  27.1725  6.38664706367716
EGP 
1 16908U 86061A   03021.39220301 -.00000083  00000-0  10000-3 0  7513
2 16908  50.0126 149.9221 0011373  24.2378 335.8962 12.44446859416384
LAGEOS 2 
1 22195U 92070B   03022.55061249 -.00000009  00000-0  00000+0 0  1469
2 22195  52.6541 268.2304 0138738  50.8312 310.4487  6.47293977242322
STELLA 
1 22824U 93061B   03020.86961006 -.00000041  00000-0  13835-8 0  3930
2 22824  98.2760  46.5749 0006800   5.6450 354.4807 14.27242192485496
WESTPAC 
1 25398U 98043E   03022.24336882  .00000019  00000-0  27761-4 0  8787
2 25398  98.6303  99.0722 0000939 146.9904 213.1332 14.22613681235594
GRACE 1 
1 27391U 02012A   03021.98928934  .00004964  00000-0  18366-3 0  2628
2 27391  89.0167 313.5995 0019611 155.8995 204.3190 15.27302445 47340
GRACE 2 
1 27392U 02012B   03021.66195741  .00004939  00000-0  18259-3 0  2731
2 27392  89.0159 313.6443 0020657 159.2850 200.9230 15.27303692 47297
ATS 1 
1 02608U 66110A   03017.73150685 -.00000278  00000-0  10000-3 0  3543
2 02608  12.1581 327.6299 0006199 104.1146 256.0317  1.00357456 49004
ATS 3 
1 03029U 67111A   03019.53666839 -.00000093  00000-0  00000-0 0  4111
2 03029  13.0648 335.0282 0015952 354.1731 237.1728  1.00272289128908
DEBUT ORIZUR
1 20479U 90013B   03021.91312042  .00000026  00000-0  12392-3 0  5627
2 20479  99.0407 350.6158 0540149  64.2922 301.2925 12.83595897607023
MAQSAT H 
1 25023U 97066A   03022.28707875 -.00000112  00000-0 -66701-3 0  7404
2 25023   7.6853  76.7090 6496978 107.0074 329.4769  3.09234669 58948
MAQSAT B 
1 25024U 97066B   03021.28809955 -.00000026  00000-0  74079-4 0  6620
2 25024   7.7439  73.4740 6505519 112.9133 325.2731  3.08735103 58962
TEAMSAT 
1 25025U 97066C   03020.78156613 -.00000081  00000-0 -27450-3 0  6690
2 25025   7.7255  80.1196 6508380  99.9497 333.8811  3.07891475 58772
MEGSAT 
1 25722U 99022B   03021.89556132  .00045496  00000-0  87851-3 0  1829
2 25722  48.4225 135.0670 0008975  51.1797 308.9952 15.47214291206545
JAWSAT 
1 26061U 00004A   03021.88302735  .00000780  00000-0  27673-3 0  7464
2 26061 100.2112  73.8072 0035156 358.5450   1.5621 14.37793311156557
OPAL 
1 26063U 00004C   03021.67482553  .00000238  00000-0  10256-3 0  7030
2 26063 100.2161  71.1875 0037344   5.6692 354.4897 14.35469828156381
FALCONSAT 
1 26064U 00004D   03021.70926834  .00000201  00000-0  90443-4 0  7026
2 26064 100.2185  70.7609 0038513   7.3573 352.8157 14.35068983156359
ASUSAT 
1 26065U 00004E   03022.18982571  .00000275  00000-0  11522-3 0  7144
2 26065 100.2158  71.9396 0037427   5.6993 354.4605 14.35496707156452
PICOSAT 12 T
1 26080U 00004H   03021.11284855  .00000911  00000-0  31204-3 0  5417
2 26080 100.2135  75.1290 0033921   0.9305 359.1895 14.39065340154868
PICOSAT 3 
1 26091U 00004J   03021.69607204  .00001760  00000-0  56215-3 0  7491
2 26091 100.2068  75.9565 0032504 352.3052   7.7625 14.41022865154255
PICOSAT 4 
1 26092U 00004K   03022.15739212  .00001057  00000-0  36004-3 0  6615
2 26092 100.2015  74.0364 0036510 355.3071   4.7749 14.38862288154251
PICOSAT 5 
1 26093U 00004L   03021.65860128  .00001628  00000-0  50929-3 0  5380
2 26093 100.1999  76.9568 0033770 350.4150   9.6392 14.42153075154551
PICOSAT 6 
1 26094U 00004M   03021.11295517  .00000930  00000-0  32276-3 0  5117
2 26094 100.2051  72.6707 0035656   0.4832 359.6387 14.38300750153767
SNAP 1 
1 26386U 00033C   03021.95520160  .00001764  00000-0  34951-3 0  8111
2 26386  98.2500 341.6420 0011359 308.3318  51.6858 14.63488162136899
CHAMP 
1 26405U 00039B   03021.64793972  .00011397  00000-0  17472-3 0  8312
2 26405  87.2567 161.0249 0004584  48.6570 311.5062 15.54150425142397
PICOSAT 9 
1 26930U 01043B   03022.19845546  .00000168  00000-0  97568-4 0  3805
2 26930  66.9978 322.0629 0005393 217.5682 142.5040 14.29733507 68474
PROBA 1 
1 26958U 01049B   03022.41637314  .00002182  00000-0  23087-3 0  4957
2 26958  97.8605 101.6277 0084881 172.3139 187.9395 14.87616325 67925
MEPSI 
1 27562U 02052B   03022.49271371  .00800585  27543-3  23582-2 0  1299
2 27562  51.6435  27.1873 0012718  71.2424 288.9974 15.91930664  7968
SAUDISAT 1A 
1 26545U 00057A   03022.09229529  .00001841  00000-0  26246-3 0  4014
2 26545  64.5591 116.3684 0053897 243.0915 116.4702 14.78906903125151
UNISAT 
1 26547U 00057C   03021.75453111  .00003008  00000-0  40673-3 0  4202
2 26547  64.5571 119.7453 0060933 245.6901 113.7846 14.79621747125075
SAUDISAT 1B 
1 26549U 00057E   03022.37933080  .00001795  00000-0  26186-3 0  6724
2 26549  64.5503 119.4575 0058251 243.3032 116.2088 14.77848532125127
MOZHAYETS 
1 27560U 02054B   03021.74766260  .00001032  00000-0  25274-3 0   759
2 27560  98.2392 270.6106 0042616 265.7883  93.8441 14.54060210  7914
SAUDISAT 1C 
1 27607U 02058C   03022.15567998  .00001342  00000-0  24334-3 0   332
2 27607  64.5531 280.7223 0039277 122.7452 237.7436 14.69841370  4776
UNISAT 2 
1 27608U 02058D   03022.22128451  .00001222  00000-0  20969-3 0   335
2 27608  64.5531 280.0276 0021040 119.1600 241.1608 14.73024942  4797
